Temperature
15 15 16 16 17 17 19 22 24 24 24 24 23 24 23 23 22 20 18 18 18 18 18 18 18 18 17 17 17 17 17 17 17 17 17 17 17 16 16 17 16 16 16 16 16 16 16 16 16
15 15 16 17 17 18 20 22 23 23 23 23 23 23 23 23 21 19 18 18 18 18 18 18 18 18 17 17 17 17 17 17 17 17 16 16 16 16 16 16 16 16 16 16 16 16 16 15 15
15 15 17 17 18 20 22 23 23 23 22 22 22 23 22 22 20 19 18 18 18 18 18 18 18 17 17 17 17 17 16 16 16 16 16 16 16 16 16 16 16 16 16 16 15 15 15 15 15
14 15 17 17 18 21 22 22 22 22 22 22 22 22 21 20 19 18 18 18 18 18 17 17 18 17 17 17 17 17 17 16 16 16 16 16 16 16 16 16 16 15 15 15 15 15 15 15 15
15 16 17 17 19 21 22 22 22 22 22 22 21 21 20 19 19 18 18 18 18 17 17 17 17 17 17 17 17 17 17 16 16 16 16 16 16 16 16 16 15 15 15 15 15 15 15 15 15
15 17 17 18 20 21 22 22 22 21 21 21 21 20 20 18 18 18 18 17 17 17 17 17 17 17 17 17 17 17 17 16 16 16 16 16 16 16 16 15 15 15 15 15 15 15 15 15 14
16 16 17 19 19 20 21 20 20 20 20 20 20 20 19 18 17 17 17 17 17 17 16 16 16 16 16 16 16 16 16 16 16 16 16 16 16 15 15 15 15 15 15 15 15 15 14 14 14
15 16 17 18 19 20 20 19 19 18 19 19 19 19 19 17 17 17 17 16 16 16 16 16 16 16 16 16 16 16 16 16 16 16 16 15 15 15 15 15 15 15 14 14 14 14 14 14 14
14 15 16 18 19 19 18 18 18 17 17 18 18 18 17 17 16 16 16 16 16 16 16 15 15 15 16 16 16 15 15 15 15 15 15 15 15 15 15 15 15 14 14 14 14 14 14 14 14
15 14 16 17 17 17 17 17 17 17 17 17 17 17 17 16 16 16 15 15 15 15 15 15 15 15 15 15 15 15 15 15 15 15 15 15 15 15 14 14 14 14 14 14 14 14 14 14 14
15 15 16 17 16 16 16 16 16 16 15 16 17 16 16 15 15 15 15 15 15 15 14 14 14 14 14 15 15 14 14 14 14 14 14 14 14 14 14 14 14 14 14 14 14 14 14 14 13
15 15 16 15 15 14 14 15 15 15 16 16 15 15 15 15 15 15 14 14 14 14 14 14 14 14 14 14 14 14 14 14 14 14 14 14 14 14 14 14 14 14 13 14 14 14 14 13 13
14 14 15 14 14 14 14 14 14 14 15 15 15 14 14 14 14 14 14 14 14 14 14 14 13 13 13 14 14 14 13 13 14 14 14 13 13 13 13 13 13 13 13 13 13 13 13 13 13
14 14 14 14 14 13 13 13 14 14 15 15 15 14 14 14 14 14 13 13 13 13 13 13 13 13 13 13 13 13 13 13 13 13 13 13 13 13 13 13 13 13 13 13 13 13 13 13 13
13 12 13 14 14 14 13 12 14 15 15 15 15 14 14 14 13 13 13 13 13 13 13 13 13 13 12 12 12 13 13 13 13 13 13 13 13 13 13 12 12 13 13 13 12 12 12 12 12
13 12 12 14 14 14 12 12 15 15 15 15 15 15 14 14 13 13 13 13 12 12 12 12 12 12 12 12 12 12 12 12 12 13 13 12 12 12 12 12 12 12 12 12 12 12 12 12 12
12 12 13 14 14 14 13 12 14 15 15 15 15 15 14 14 13 13 13 12 12 12 12 12 12 12 12 12 12 12 12 12 12 12 12 12 12 12 12 12 12 12 12 12 12 12 12 12 12
12 13 14 14 14 14 12 12 14 15 15 15 15 15 14 13 13 13 12 12 12 11 11 11 11 11 11 11 11 11 12 12 12 12 12 12 12 12 11 11 11 11 11 11 11 11 11 11 12
12 12 12 13 14 13 12 12 13 14 15 14 15 14 14 13 13 12 12 11 11 11 11 11 11 11 11 11 11 11 11 11 11 11 11 11 11 11 11 11 11 11 11 11 11 11 11 11 11
12 11 11 13 14 13 12 12 13 14 14 15 14 14 14 13 12 12 11 11 11 10 10 10 10 10 10 10 10 10 10 11 10 10 10 11 11 11 11 11 10 10 10 10 10 10 10 10 11
11 11 11 12 12 12 11 11 13 14 14 14 14 14 13 13 12 11 11 11 10 10 10 10 10 10 10 10 10 10 10 10 10 10 10 10 10 10 10 10 10 10 10 10 10 10 10 10 10
10 12 11 11 10 9 11 9 12 13 13 13 13 13 13 12 12 11 10 10 10 10 10 10 9 9 9 9 9 9 9 9 9 9 9 9 10 10 10 10 10 10 10 10 10 10 9 9 9
11 11 11 10 9 9 10 9 10 13 12 12 12 13 12 12 11 11 10 10 9 9 9 9 9 9 9 9 9 9 9 9 9 9 9 9 9 9 9 9 9 9 9 9 9 9 9 9 9
11 10 10 9 9 8 9 9 10 12 13 13 12 13 12 11 11 10 10 9 9 9 9 9 9 8 8 8 8 8 8 8 8 8 8 9 9 8 8 9 9 9 9 9 9 9 9 9 9
9 9 8 8 8 8 11 11 11 13 13 13 12 12 11 11 10 10 9 9 9 9 9 8 8 8 8 8 8 8 8 8 8 8 8 8 8 8 8 8 8 8 8 8 8 8 8 8 8
9 9 8 8 9 10 11 10 11 13 13 13 12 12 11 10 10 9 9 9 9 8 8 8 8 8 8 8 8 8 8 8 8 7 7 8 8 8 8 8 8 8 8 8 8 8 8 8 8
9 9 10 8 8 8 9 12 12 13 12 12 11 11 10 10 10 9 9 8 8 8 8 8 8 8 8 8 7 7 7 7 7 7 7 7 7 7 7 8 8 7 8 7 7 7 8 8 8
9 10 8 7 7 8 10 11 11 11 11 10 10 10 10 10 9 9 8 8 8 8 8 8 7 7 7 7 7 7 7 7 7 7 7 7 7 7 7 7 7 7 7 7 7 7 7 7 7
8 8 8 8 8 7 8 10 12 11 11 10 10 10 10 9 9 8 8 8 8 7 7 7 7 7 7 7 7 7 6 6 6 6 6 6 7 7 7 7 7 7 7 7 7 7 7 7 7
9 8 8 6 7 7 7 8 12 11 11 10 10 10 10 9 8 8 8 7 7 7 7 6 6 6 6 6 6 6 6 6 6 6 6 6 6 6 6 6 6 6 6 6 6 6 6 6 6
Wind_Speed
11 11 8 3 4 6 7 6 3 2 2 4 5 5 5 5 5 6 3 5 5 6 9 10 8 7 7 6 6 7 7 7 8 8 9 9 9 9 9 9 9 9 10 11 11 12 12 12 12
11 9 5 4 4 6 6 7 4 1 3 4 1 2 3 2 5 7 4 5 4 6 8 9 9 7 6 6 6 7 7 7 7 7 8 8 8 9 9 9 10 10 10 10 11 12 13 13 13
11 9 4 4 6 6 2 2 5 5 5 2 1 2 2 3 5 5 5 4 4 6 8 10 9 7 6 5 6 7 6 6 7 7 7 8 8 8 9 9 10 10 10 10 11 12 13 13 13
5 4 5 7 12 8 4 2 4 2 2 0 2 2 1 4 4 5 5 4 4 5 7 9 9 7 5 5 6 7 6 6 7 7 7 7 8 8 9 9 10 10 10 10 11 12 13 13 13
5 4 6 8 12 8 5 2 1 3 2 1 2 3 1 5 7 6 5 4 4 4 5 7 8 7 5 5 5 6 7 7 7 7 7 8 8 8 9 9 9 10 10 10 11 13 13 13 13
4 4 6 10 10 8 5 2 3 4 4 3 2 3 2 4 6 5 4 3 3 4 4 5 6 7 7 6 6 6 7 7 7 7 8 8 8 9 9 9 9 10 11 11 11 13 13 14 13
5 5 7 9 8 4 1 2 3 4 4 4 4 3 2 4 5 4 5 5 4 4 3 2 3 5 6 7 7 7 8 8 8 8 8 8 9 10 10 10 10 10 11 11 12 12 13 14 13
4 5 7 8 8 5 1 1 2 5 5 4 4 3 1 3 5 5 5 4 3 3 1 0 1 3 3 5 7 7 8 8 8 8 8 8 9 10 11 11 11 11 11 12 12 12 13 14 13
4 5 7 6 5 2 3 2 2 3 5 5 4 5 3 4 5 4 4 4 2 2 1 1 1 1 2 3 5 7 7 8 8 8 8 7 7 8 9 11 11 12 12 13 13 13 13 13 13
5 5 5 4 5 5 5 5 5 4 7 7 6 5 3 3 4 5 5 4 3 2 2 1 1 1 1 1 2 4 6 6 6 6 7 7 7 7 8 10 12 12 13 13 14 14 13 12 10
6 6 6 6 6 7 7 7 7 8 9 8 6 5 5 6 5 5 6 5 4 3 2 1 1 1 1 1 1 1 2 4 5 6 6 6 5 4 4 5 7 9 10 9 10 10 10 10 9
7 8 7 6 6 7 8 8 8 10 10 7 6 6 6 7 7 6 5 5 4 3 2 1 2 2 2 2 2 2 2 2 2 3 5 3 2 2 3 3 4 5 6 6 7 6 8 9 11
11 9 8 7 7 9 11 12 12 14 12 8 7 7 8 8 7 6 5 5 4 4 3 2 3 2 2 2 2 2 2 2 3 2 4 3 3 3 3 3 4 5 5 5 6 6 7 8 9
5 7 9 9 10 9 11 13 11 12 10 8 7 8 8 8 8 6 5 5 5 4 4 3 3 3 3 2 3 3 2 2 2 3 4 4 3 3 4 4 4 4 5 6 6 6 6 7 6
6 8 11 11 10 5 6 12 12 12 9 9 8 8 8 7 7 6 5 4 4 3 3 3 3 3 3 3 3 3 3 3 3 3 4 4 3 4 3 4 4 4 6 6 5 6 4 5 6
6 7 7 5 7 6 4 10 6 4 7 9 8 7 7 6 6 5 4 3 3 3 3 3 4 3 3 3 3 3 3 3 3 3 3 4 4 3 3 3 4 4 4 4 4 5 4 5 5
7 7 8 5 7 5 7 11 8 5 7 10 10 8 6 5 5 4 3 2 2 3 3 3 3 4 3 3 2 2 3 3 3 2 3 4 4 4 3 4 4 4 4 4 5 4 4 5 5
4 6 6 6 4 6 10 14 12 10 11 11 9 7 5 5 4 2 1 1 2 2 2 3 3 3 3 2 2 2 3 3 3 2 3 4 4 5 4 4 4 4 4 4 4 5 4 4 5
8 8 10 10 6 6 11 15 14 12 11 9 7 5 4 4 2 1 1 1 2 2 3 3 3 3 2 2 2 2 3 3 4 3 4 5 5 5 5 4 5 5 5 5 5 4 5 5 4
10 11 12 10 5 6 11 16 15 12 9 6 5 5 4 3 1 1 1 0 2 3 3 3 3 3 3 2 2 3 3 4 4 4 5 6 6 6 5 5 5 5 5 6 6 5 4 4 5
11 11 10 9 10 8 9 10 8 5 4 3 4 4 3 3 2 1 1 0 2 3 3 3 3 3 3 3 2 2 3 2 3 4 4 6 6 6 6 6 6 6 6 6 7 7 7 6 5
8 5 8 9 7 5 3 6 7 5 4 5 5 4 2 1 0 0 0 1 2 3 2 3 3 3 3 3 3 4 4 4 5 4 4 5 6 6 6 6 6 6 6 6 7 7 6 7 7
5 3 6 8 7 7 6 6 8 6 5 6 5 4 2 1 1 1 0 1 2 2 2 3 4 4 3 4 5 5 5 5 4 4 5 5 5 6 7 6 6 6 6 7 7 7 8 7 8
3 3 5 5 3 6 7 8 6 3 5 4 3 2 2 2 2 2 1 1 2 2 2 3 4 4 5 5 5 6 6 6 6 5 5 5 5 5 7 7 6 6 6 7 7 8 8 8 9
4 2 1 2 4 6 6 6 6 2 2 4 4 2 2 2 2 2 2 2 3 3 3 3 4 5 5 5 5 6 6 7 7 7 6 6 5 5 7 7 7 6 6 7 7 8 8 9 9
9 5 4 4 4 3 2 6 4 3 5 6 5 3 2 2 2 2 2 2 3 4 3 3 4 5 5 5 5 5 6 5 5 7 6 6 5 6 7 7 7 7 7 8 7 7 8 8 9
6 7 3 2 4 4 6 5 3 3 5 5 4 3 1 1 1 2 2 3 3 4 4 4 4 5 5 5 5 6 6 6 6 6 6 5 5 5 7 7 8 8 8 8 8 8 8 8 9
5 3 3 4 3 5 6 6 4 4 3 3 2 1 0 2 2 3 3 3 4 4 5 4 4 4 5 5 4 4 5 6 6 5 6 6 6 6 6 7 8 8 8 8 8 7 7 8 8
7 6 5 5 4 4 4 4 1 4 4 3 2 1 0 2 2 3 4 4 4 5 5 5 5 5 4 4 4 4 5 4 5 5 6 6 5 6 5 6 7 8 8 8 8 8 8 9 8
7 8 8 5 5 5 4 5 1 4 4 3 2 2 2 2 3 3 3 4 5 6 6 6 6 5 5 4 3 4 4 4 5 4 5 5 5 6 6 6 7 7 8 8 9 9 9 9 10
Wind_Direction
286 256 242 245 241 233 243 242 235 94 44 35 19 351 347 355 25 91 123 38 41 87 110 128 131 136 139 141 141 142 144 145 151 157 158 161 163 162 160 159 158 154 149 146 144 138 136 131 127
286 257 238 238 241 237 235 223 219 162 72 47 26 299 309 16 67 93 79 39 44 83 107 122 133 140 143 147 150 149 150 152 152 158 162 167 170 170 170 169 165 161 156 152 149 145 141 136 132
273 258 236 231 233 238 255 62 74 64 61 30 315 299 311 23 52 74 67 38 44 80 97 122 132 142 152 159 160 157 160 162 159 161 167 171 176 178 177 177 174 170 166 161 155 149 146 142 139
257 230 242 243 248 252 279 21 62 76 115 66 302 303 89 61 53 62 59 33 37 74 89 119 135 141 152 167 169 166 168 170 168 169 172 175 180 183 181 180 179 176 173 166 162 157 152 149 147
250 239 234 240 247 256 278 332 51 272 227 189 259 288 12 78 75 63 51 25 26 59 85 115 140 153 164 173 179 177 177 177 175 179 180 180 181 180 179 178 180 180 178 174 171 164 159 156 155
237 242 242 242 242 237 228 251 268 261 280 273 274 269 270 107 77 42 28 12 22 44 74 112 143 164 176 186 188 189 187 187 186 187 191 190 187 185 183 184 184 185 182 179 178 173 168 164 163
253 255 255 266 270 265 253 45 311 302 294 316 334 298 224 87 64 33 16 2 17 35 55 100 141 166 185 194 195 200 195 194 195 196 199 199 196 193 190 188 188 190 187 183 181 178 175 173 170
282 276 257 256 260 261 29 47 5 330 310 342 331 293 308 45 37 15 1 345 359 12 37 130 169 163 185 206 206 202 200 198 198 199 200 201 199 199 192 190 191 192 191 188 184 181 178 178 176
283 256 254 263 288 327 29 338 334 330 294 287 275 281 315 0 0 341 321 309 314 319 319 269 233 189 197 206 207 201 201 201 197 196 197 194 195 195 194 193 192 192 193 192 189 185 183 181 182
225 246 252 311 339 334 334 320 313 282 270 268 263 269 294 313 310 296 291 291 291 283 275 288 295 267 233 231 206 202 199 195 196 197 190 191 198 197 198 190 193 195 194 193 192 190 185 182 184
221 245 277 305 333 330 312 298 286 273 265 265 279 298 313 311 296 286 287 291 284 274 266 253 248 285 268 243 228 208 202 192 198 198 193 190 186 181 177 167 177 188 190 187 186 186 188 187 185
251 257 275 288 315 306 294 290 285 267 266 287 301 300 297 288 285 280 281 286 286 276 261 255 242 230 245 248 238 225 211 200 198 194 189 182 175 176 169 172 172 177 185 183 181 189 195 194 191
243 259 267 277 280 280 279 271 273 267 268 267 267 268 271 276 277 280 285 286 281 279 270 254 240 221 217 235 249 247 236 218 203 194 196 186 178 187 182 188 183 187 188 189 195 200 197 196 193
287 289 282 272 267 267 270 271 261 256 252 251 244 252 258 265 274 279 277 277 274 266 267 254 240 220 214 218 225 238 237 231 207 191 204 193 180 189 186 191 193 198 194 197 201 205 204 198 194
288 283 273 247 239 242 280 272 239 243 244 251 246 250 252 252 259 264 257 254 265 266 269 261 240 222 218 219 229 236 228 222 223 202 202 198 191 193 191 194 197 200 201 201 206 207 204 201 199
243 250 257 221 211 197 225 270 265 224 236 250 254 255 246 245 245 250 252 243 254 250 248 259 263 227 219 217 231 240 239 221 224 209 203 201 199 199 198 198 202 201 201 204 205 205 202 203 202
222 243 249 237 200 206 226 264 272 261 250 255 257 254 248 245 238 239 243 239 242 243 244 233 252 229 219 221 229 239 247 238 226 219 206 203 199 204 209 205 207 203 205 211 211 209 200 203 204
243 255 269 264 208 241 255 266 274 269 258 254 254 247 238 244 240 243 255 272 264 253 250 240 245 230 212 210 223 239 245 244 241 232 222 208 205 206 207 211 209 204 205 210 208 210 207 205 202
287 286 284 286 289 275 264 273 275 268 263 256 247 233 223 235 228 197 227 284 290 277 255 241 242 248 218 200 211 224 237 233 233 232 242 221 213 210 206 214 213 210 209 212 211 213 208 212 197
259 270 276 286 292 294 277 276 272 261 249 235 227 221 209 228 231 220 204 225 306 292 286 264 242 241 229 211 218 225 237 233 230 226 237 229 217 216 218 210 212 212 214 212 214 209 212 217 197
250 254 270 287 310 276 276 284 257 232 227 203 222 221 210 211 229 208 192 258 328 320 298 281 258 243 229 219 220 236 248 244 244 234 237 231 221 221 221 216 212 214 213 214 213 210 210 217 216
257 258 271 283 292 284 281 289 270 240 206 200 208 196 196 181 260 42 48 349 322 312 294 267 258 253 234 214 217 221 233 237 243 233 239 232 223 223 225 219 217 216 217 217 217 218 215 210 217
245 298 275 269 268 278 241 246 273 233 222 211 196 172 166 143 74 48 45 292 297 305 296 264 257 253 243 227 223 223 234 235 236 240 241 237 227 224 226 222 218 220 217 220 223 223 218 215 219
247 270 265 251 252 260 222 217 273 227 215 191 154 121 116 94 72 45 5 286 292 298 287 265 250 252 246 233 233 229 233 234 232 240 243 237 229 225 223 223 218 220 219 220 224 224 224 224 224
205 211 262 227 219 243 202 214 248 265 89 114 117 106 97 80 55 19 359 345 322 306 292 270 257 252 249 240 239 238 236 233 230 233 237 234 231 231 225 225 221 221 221 224 225 226 226 225 226
199 201 197 230 250 275 224 233 243 141 96 100 110 113 86 49 21 356 342 341 330 316 301 289 266 266 256 243 244 246 244 234 229 235 239 234 231 232 229 223 223 223 222 230 228 230 229 229 229
192 212 236 268 284 272 243 228 214 130 117 112 110 107 83 359 4 351 347 341 325 314 306 296 290 283 274 259 253 248 246 239 234 236 240 234 234 241 232 228 227 228 225 226 228 231 229 229 230
245 206 180 197 236 257 256 237 217 161 146 130 127 117 332 334 351 347 338 327 320 314 314 311 301 293 290 266 254 258 255 244 238 235 239 238 236 237 232 232 229 228 229 229 230 231 229 231 233
192 206 204 209 228 235 268 262 72 125 143 151 164 172 349 358 346 332 325 327 330 328 326 319 310 307 303 278 258 256 259 248 239 240 241 240 243 237 234 237 237 233 231 231 232 234 230 234 237
206 204 191 197 227 225 253 268 33 99 106 100 68 23 13 360 344 335 330 332 337 334 329 322 319 311 303 292 277 262 262 256 245 247 249 250 248 242 238 238 240 239 236 230 232 234 235 234 236
Height
1488 1490 1492 1495 1496 1495 1487 1473 1464 1466 1467 1470 1472 1472 1474 1475 1479 1489 1489 1486 1486 1485 1484 1484 1485 1486 1488 1490 1491 1493 1494 1496 1498 1499 1500 1502 1503 1505 1506 1507 1508 1509 1511 1512 1513 1514 1515 1516 1517
1487 1491 1494 1494 1494 1492 1481 1468 1466 1466 1469 1472 1474 1475 1475 1477 1480 1484 1485 1485 1485 1485 1484 1485 1485 1486 1488 1490 1491 1493 1494 1496 1497 1498 1500 1501 1503 1504 1506 1507 1508 1509 1511 1512 1513 1514 1515 1516 1518
1488 1491 1493 1490 1487 1483 1473 1465 1465 1467 1471 1473 1475 1476 1477 1479 1481 1483 1485 1485 1485 1485 1485 1485 1485 1486 1488 1489 1491 1492 1494 1495 1497 1498 1499 1501 1502 1504 1505 1506 1508 1509 1510 1511 1513 1514 1515 1516 1517
1489 1492 1491 1488 1482 1471 1467 1465 1467 1469 1472 1474 1476 1477 1478 1481 1482 1483 1484 1485 1485 1485 1484 1485 1485 1486 1487 1488 1490 1491 1493 1494 1496 1497 1499 1500 1501 1503 1504 1505 1507 1508 1510 1511 1512 1513 1515 1516 1517
1489 1489 1488 1484 1477 1469 1466 1466 1468 1471 1472 1474 1476 1477 1479 1480 1481 1482 1483 1484 1485 1484 1484 1484 1484 1485 1486 1487 1489 1490 1491 1493 1495 1496 1498 1499 1500 1502 1503 1504 1506 1507 1509 1510 1511 1512 1514 1515 1516
1489 1485 1486 1481 1472 1466 1465 1467 1469 1471 1472 1474 1475 1477 1479 1480 1480 1481 1482 1483 1483 1483 1483 1483 1483 1484 1485 1486 1487 1488 1490 1491 1493 1494 1496 1498 1499 1500 1501 1503 1504 1506 1507 1508 1510 1511 1512 1514 1515
1488 1484 1481 1474 1470 1466 1466 1468 1470 1471 1473 1475 1475 1476 1478 1479 1479 1479 1480 1481 1482 1482 1481 1482 1482 1483 1483 1484 1485 1486 1488 1489 1491 1492 1494 1495 1497 1498 1500 1501 1502 1504 1505 1507 1508 1509 1511 1512 1514
1485 1483 1477 1473 1470 1468 1467 1469 1472 1474 1474 1476 1476 1477 1477 1478 1477 1478 1478 1479 1480 1480 1480 1480 1480 1481 1481 1482 1483 1484 1485 1487 1488 1490 1491 1493 1495 1496 1498 1499 1500 1502 1503 1505 1506 1508 1509 1510 1512
1485 1486 1479 1471 1469 1468 1469 1471 1473 1474 1475 1475 1476 1476 1477 1476 1475 1476 1477 1477 1477 1478 1478 1478 1478 1478 1479 1479 1480 1482 1483 1484 1485 1487 1489 1490 1492 1493 1495 1496 1498 1499 1501 1502 1504 1506 1507 1509 1510
1484 1483 1475 1471 1470 1470 1471 1472 1474 1474 1473 1474 1474 1474 1474 1474 1474 1474 1475 1475 1475 1475 1475 1475 1475 1476 1476 1477 1478 1479 1480 1481 1482 1484 1486 1487 1489 1490 1492 1493 1495 1497 1498 1500 1501 1503 1504 1506 1508
1479 1477 1473 1471 1472 1472 1473 1473 1473 1473 1471 1471 1471 1471 1471 1472 1472 1472 1472 1472 1472 1472 1472 1472 1472 1473 1473 1474 1475 1476 1477 1478 1480 1481 1483 1484 1486 1487 1489 1490 1492 1494 1495 1497 1498 1500 1501 1503 1505
1476 1473 1473 1473 1473 1473 1473 1472 1472 1470 1469 1469 1468 1468 1469 1469 1469 1469 1469 1469 1469 1469 1468 1468 1469 1469 1470 1471 1471 1472 1473 1475 1476 1478 1480 1481 1482 1484 1485 1487 1488 1490 1492 1493 1495 1496 1498 1500 1502
1475 1473 1472 1472 1473 1472 1472 1471 1470 1466 1465 1465 1465 1465 1466 1466 1466 1466 1465 1465 1465 1465 1465 1465 1465 1466 1466 1467 1468 1469 1470 1471 1473 1474 1476 1478 1479 1480 1482 1483 1485 1487 1488 1490 1491 1493 1495 1496 1498
1472 1472 1471 1470 1470 1470 1469 1466 1466 1459 1461 1461 1461 1461 1462 1462 1462 1461 1461 1461 1461 1461 1461 1461 1461 1462 1463 1463 1464 1465 1467 1468 1469 1471 1472 1474 1475 1477 1478 1480 1481 1483 1485 1486 1488 1489 1491 1493 1495
1473 1473 1469 1465 1466 1466 1467 1463 1457 1455 1457 1457 1457 1457 1457 1457 1457 1457 1457 1457 1457 1457 1457 1457 1458 1458 1459 1459 1460 1462 1463 1464 1465 1467 1469 1470 1471 1473 1474 1476 1477 1479 1481 1483 1484 1486 1488 1489 1491
1472 1472 1468 1459 1460 1462 1468 1462 1451 1451 1452 1452 1453 1453 1453 1453 1453 1453 1453 1453 1453 1453 1453 1453 1454 1454 1455 1455 1457 1458 1459 1460 1461 1462 1464 1466 1467 1469 1470 1472 1473 1475 1477 1479 1480 1482 1483 1485 1486
1470 1469 1462 1458 1456 1457 1461 1457 1449 1449 1449 1448 1448 1448 1448 1449 1449 1449 1449 1449 1449 1449 1449 1449 1449 1450 1450 1451 1452 1454 1455 1456 1457 1458 1460 1461 1463 1464 1466 1467 1469 1470 1472 1474 1476 1477 1479 1480 1482
1466 1463 1457 1456 1453 1454 1455 1451 1446 1445 1444 1442 1442 1443 1444 1445 1445 1445 1445 1445 1445 1445 1445 1445 1445 1446 1446 1447 1448 1450 1451 1452 1452 1453 1455 1457 1458 1460 1461 1462 1464 1466 1467 1469 1471 1472 1474 1476 1477
1461 1462 1462 1455 1451 1452 1451 1447 1441 1439 1438 1437 1437 1438 1440 1441 1441 1441 1441 1441 1440 1440 1441 1441 1441 1441 1442 1442 1443 1445 1446 1447 1447 1448 1451 1452 1453 1455 1456 1457 1459 1461 1462 1464 1466 1467 1469 1471 1473
1462 1463 1460 1454 1450 1450 1448 1442 1435 1432 1431 1431 1433 1435 1436 1437 1437 1437 1437 1437 1437 1436 1436 1436 1437 1437 1438 1438 1439 1441 1442 1442 1443 1444 1446 1447 1448 1450 1451 1452 1454 1456 1457 1458 1460 1462 1463 1465 1468
1460 1461 1458 1457 1452 1448 1448 1441 1430 1425 1426 1427 1430 1431 1433 1434 1434 1434 1433 1433 1433 1432 1431 1432 1432 1433 1433 1434 1435 1436 1437 1437 1438 1439 1440 1442 1443 1445 1446 1447 1449 1450 1452 1453 1454 1457 1458 1459 1461
1459 1455 1455 1456 1460 1457 1451 1455 1433 1424 1425 1425 1426 1428 1429 1431 1431 1431 1431 1430 1430 1429 1428 1427 1428 1428 1429 1430 1430 1431 1432 1432 1433 1434 1435 1437 1438 1439 1441 1442 1443 1445 1446 1447 1449 1451 1453 1454 1455
1455 1454 1455 1455 1458 1459 1451 1455 1437 1423 1424 1423 1423 1425 1427 1428 1429 1429 1428 1428 1427 1425 1424 1424 1424 1424 1425 1425 1426 1427 1427 1427 1429 1430 1430 1431 1432 1434 1435 1436 1438 1439 1440 1442 1443 1445 1447 1448 1449
1453 1454 1454 1454 1458 1463 1447 1449 1436 1422 1419 1419 1420 1423 1425 1426 1427 1427 1426 1425 1424 1422 1421 1421 1420 1420 1420 1421 1421 1422 1422 1423 1423 1424 1425 1426 1426 1428 1429 1431 1432 1433 1434 1436 1437 1438 1440 1441 1443
1453 1458 1461 1460 1461 1453 1433 1437 1430 1417 1414 1416 1419 1422 1423 1424 1425 1425 1424 1422 1421 1419 1418 1417 1416 1415 1416 1416 1416 1417 1417 1417 1418 1418 1419 1420 1420 1422 1423 1424 1425 1427 1428 1430 1431 1432 1433 1435 1436
1450 1452 1459 1461 1452 1440 1433 1434 1422 1413 1413 1415 1418 1421 1423 1423 1423 1423 1422 1420 1419 1417 1415 1414 1413 1412 1412 1411 1411 1411 1412 1412 1412 1413 1414 1414 1415 1416 1417 1418 1419 1420 1422 1423 1424 1425 1426 1428 1429
1446 1449 1445 1452 1452 1452 1437 1421 1415 1411 1413 1415 1418 1420 1421 1422 1422 1422 1420 1419 1417 1415 1413 1411 1409 1408 1407 1406 1406 1406 1406 1406 1407 1408 1409 1409 1409 1410 1411 1412 1413 1414 1415 1417 1418 1418 1419 1421 1422
1441 1442 1448 1453 1457 1450 1431 1422 1420 1415 1415 1416 1418 1419 1420 1420 1420 1419 1418 1417 1415 1413 1411 1409 1407 1404 1403 1402 1401 1401 1401 1401 1401 1402 1403 1403 1404 1404 1405 1406 1406 1407 1408 1410 1411 1411 1412 1413 1414
1442 1443 1442 1445 1445 1448 1441 1427 1409 1410 1412 1415 1416 1417 1418 1418 1418 1418 1416 1415 1413 1411 1408 1406 1404 1401 1399 1398 1397 1397 1396 1396 1396 1396 1397 1398 1398 1399 1399 1399 1400 1400 1401 1403 1404 1404 1404 1406 1407
1433 1434 1439 1448 1446 1441 1442 1430 1407 1408 1410 1412 1415 1416 1417 1417 1417 1416 1414 1412 1410 1408 1405 1403 1400 1398 1396 1395 1394 1393 1392 1392 1392 1391 1392 1392 1393 1393 1393 1393 1393 1394 1394 1395 1396 1396 1398 1399 1399